Location: Hilton Head Island
(32.2163°N, 80.7526°W)
Time: 13:12:58
(UTC-04:00)

Explorer 11/Cluster Stage 4 - Pass Details

Date: 25 February 2026
Orbit: 463 x 1176 km, 28.8° (Epoch: 8 March)

Event Time Altitude Azimuth Distance (km) Brightness Sun altitude
Rises 12:02:12 0° 265° (W) 3,491 9.9 48.1°
Reaches altitude 10° 12:05:03 10° 262° (W) 2,425 9.2 48.2°
Maximum altitude 12:10:39 59° 184° (S) 809 8.8 48.4°
Drops below altitude 10° 12:15:10 10° 104° (ESE) 1,966 9.0 48.6°
Sets 12:17:17 0° 100° (E) 2,777 9.6 48.6°
